Location: Fuhrbach
(51.5290°N, 10.3385°E)
Time: 14:33:31
(UTC+00:00)

Daily predictions for brighter satellites

Satellite Brightness Start Highest point End
(mag) Time Altitude Azimuth Time Altitude Azimuth Time Altitude Azimuth
BREEZE-M DEB (TANK) 4.4 19:25:24 10° W 19:29:30 43° S 19:36:37 10° ESE
USA 307 3.0 19:29:57 10° WNW 19:34:14 78° NNE 19:38:31 10° ESE
Cosmos 1437 4.1 19:34:29 10° SE 19:36:33 19° E 19:38:38 10° NE
Cosmos 968 Rocket 3.9 19:33:42 10° SSW 19:38:57 71° WNW 19:44:11 10° NNE
NOSS 3-3 (A) 4.4 19:34:27 10° S 19:39:46 39° ESE 19:45:47 10° NE
NOSS 3-3 (C) 4.4 19:34:34 10° S 19:39:53 39° ESE 19:45:53 10° NE
ATLAS 2AS CENTAUR R/B 3.7 19:33:57 10° NW 19:41:13 44° NNE 19:47:57 10° E
Intercosmos 24 3.6 19:38:45 10° S 19:42:22 79° E 19:46:04 10° NNE
Cosmos 1354 Rocket 4.1 19:37:56 10° S 19:43:02 57° ESE 19:48:12 10° NNE
Sich 1 3.4 19:39:03 10° NNW 19:43:22 67° W 19:47:41 10° S
S3M 4.1 19:38:42 10° S 19:45:06 89° E 19:51:27 10° N
USA 245 3.4 19:43:42 10° SE 19:45:35 23° ENE 19:47:29 10° N
SJ 16-02 3.0 19:43:19 10° SE 19:46:00 16° E 19:48:41 10° ENE
OBJECT-B 3.1 19:45:03 10° SSW 19:47:43 23° W 19:50:26 10° NW
USA 308 3.0 19:43:32 10° WNW 19:47:51 85° NNE 19:52:09 10° ESE
SPOT 1/Viking Rocket 3.8 19:43:42 10° SE 19:48:47 57° ENE 19:53:53 10° N
Meteor 1-26 Rocket 4.3 19:43:24 10° S 19:48:55 58° E 19:54:18 10° NNE
Cosmos 2315 Rocket 4.2 19:44:38 10° S 19:50:50 58° E 19:57:05 10° NNE
Cosmos 1500 3.5 19:48:42 10° N 19:52:22 48° ENE 19:55:59 10° SSE
USA 215 4.0 19:47:04 10° ENE 19:53:27 57° N 19:59:50 10° W
BREEZE M DEB (TANK) 2.2 19:51:37 10° W 19:57:22 62° SSW 19:59:41 11° ESE
Meteor 1-14 Rocket 4.4 19:52:17 10° N 19:58:11 70° ENE 20:03:55 10° SSE
Terra 3.1 19:54:23 10° ESE 19:58:20 27° ENE 20:02:18 10° N
Cosmos 2082 Rocket 2.9 19:53:19 10° NNW 19:58:41 43° NE 20:03:59 10° ESE
X-37B 2.7 20:00:47 10° WSW 20:02:48 16° SSW 20:04:43 10° SSE
CREW DRAGON DEMO-1 DEB 2.6 20:00:32 10° W 20:03:09 57° SSW 20:05:17 14° ESE
Cosmos 1151 Rocket 3.0 19:59:00 10° S 20:03:21 70° E 20:07:43 10° NNE
SPOT 3 Rocket 3.7 19:58:15 10° S 20:03:24 75° WSW 20:08:35 10° NNW
SPOT 5 3.8 19:59:20 10° SE 20:04:01 41° ENE 20:08:59 10° N
Cosmos 1437 Rocket 4.4 20:00:56 10° SW 20:04:35 37° WNW 20:08:20 10° N
COSMOS 2406 3.3 19:59:30 10° NNW 20:05:13 78° ENE 20:10:33 12° SE
ERBS 4.0 20:02:31 10° WNW 20:05:31 31° N 20:08:31 10° ENE
Cosmos 2084 3.6 20:03:54 10° SSW 20:07:53 47° SE 20:11:59 10° NE
Resurs 01 Rocket 2.2 20:03:42 10° S 20:08:05 58° W 20:12:29 10° NNW
Cosmos 1538 Rocket 4.1 20:08:39 10° NNW 20:14:03 73° ENE 20:18:45 13° SSE
Cosmos 1933 4.2 20:11:09 10° SSW 20:15:05 51° WNW 20:19:02 10° N
Cosmos 773 Rocket 4.4 20:12:08 10° NNW 20:17:24 64° WSW 20:22:37 10° S
MetOp-B 4.4 20:15:52 10° S 20:21:12 69° WSW 20:26:34 10° NNW
Cosmos 1271 Rocket 3.8 20:19:15 15° SE 20:21:53 29° E 20:25:23 10° NNE
Cosmos 2278 Rocket 2.5 20:20:49 10° S 20:26:12 48° ESE 20:31:37 10° NE
Spot 2 Rocket 3.5 20:22:06 12° SSE 20:26:48 86° ENE 20:31:53 10° NNW
BREEZE-M DEB (TANK) 1.3 20:24:44 10° W 20:26:50 47° S 20:27:56 22° ESE
USA 305 3.0 20:24:00 10° WNW 20:28:14 64° SSW 20:31:23 17° SE
Cosmos 1782 3.2 20:24:45 10° SSW 20:28:43 64° WNW 20:32:42 10° N
Cosmos 1680 Rocket 4.4 20:25:25 10° NNW 20:30:27 40° NE 20:34:33 15° ESE
Cosmos 1844 Rocket 4.1 20:25:29 10° WSW 20:30:44 41° NW 20:36:04 10° NNE
Cosmos 1242 Rocket 4.2 20:28:07 10° SW 20:31:25 35° WNW 20:34:42 10° N
Gbstr 26 Del rocket 4.3 20:25:18 10° W 20:33:11 88° N 20:39:51 10° E
Cosmos 1943 Rocket 4.0 20:32:27 11° ESE 20:33:45 12° E 20:35:40 10° ENE
Cosmos 1515 Rocket 3.6 20:29:40 10° S 20:34:03 67° E 20:38:25 10° NNE
ERS-1 Rocket 3.0 20:30:20 15° SSE 20:34:25 70° ENE 20:39:27 10° N
Cosmos 1869 Rocket 4.2 20:32:05 10° N 20:36:12 40° ENE 20:38:55 19° SE
CZ-4C R/B 3.3 20:29:51 10° NW 20:36:53 62° SW 20:43:47 15° SSE
Cosmos 1633 Rocket 4.3 20:34:25 10° NNW 20:38:31 38° W 20:42:36 10° SSW
Meteor 1-11 Rocket 4.0 20:37:28 10° N 20:43:27 65° ENE 20:47:53 18° SSE
deb Kosmos-1763 4.2 20:42:13 10° NNW 20:45:43 61° WSW 20:47:57 20° S
ATLAS 5 CENTAUR R/B 4.0 20:41:23 10° WNW 20:45:55 24° WSW 20:51:00 10° SSW
USA 306 3.2 20:43:21 10° WNW 20:47:30 51° SSW 20:49:58 22° SE
Cosmos 1818 4.5 20:43:32 10° NW 20:48:48 44° NE 20:53:34 12° ESE
Cosmos 1470 Rocket 4.4 20:46:33 10° NNW 20:50:52 48° W 20:55:01 11° SSW
Cosmos 1812 2.8 20:47:18 10° SSW 20:51:09 77° W 20:55:02 10° N
Cosmos 1328 Rocket 4.4 20:46:56 10° SSW 20:51:15 51° WNW 20:55:36 10° N
Cosmos 1777 Rocket 4.0 20:47:56 10° SSW 20:53:08 83° WNW 20:58:23 10° NNE
Cosmos 1340 Rocket 3.8 20:49:36 10° N 20:53:24 35° ENE 20:55:28 21° ESE
ARIANE 5 R/B 3.1 20:52:22 15° S 20:55:52 54° W 21:00:09 10° NNW
Cosmos 1666 3.0 20:54:17 10° NNW 20:57:59 60° W 21:00:29 19° S
CARTOSAT-1 4.1 20:56:42 16° S 21:00:04 53° W 21:04:19 10° NNW
Meteor 2-12 Rocket 4.4 20:54:54 10° N 21:01:01 80° ENE 21:05:21 20° SSE
Cosmos 1833 Rocket 3.5 20:57:30 10° NW 21:02:51 44° WSW 21:07:04 16° S
Cosmos 1933 Rocket 4.2 21:00:56 10° NNW 21:05:09 51° W 21:08:26 16° SSW
Cosmos 2154 Rocket 4.0 20:58:54 10° N 21:05:17 78° ENE 21:09:42 21° SSE
Cosmos 923 Rocket 4.0 21:01:37 10° NNW 21:06:55 87° ENE 21:10:12 24° SSE
BREEZE-M R/B 1.7 21:04:40 10° WSW 21:07:03 58° S 21:07:49 37° ESE
SL-24 DEB 4.2 21:05:35 24° SSE 21:08:19 70° E 21:12:55 10° N
Cosmos 1536 2.8 21:04:31 10° N 21:08:34 71° ENE 21:10:33 28° SSE
Cosmos 1898 Rocket 4.3 21:07:15 23° SE 21:09:31 33° ESE 21:14:15 10° NE
Meteor 1-10 Rocket 4.2 21:05:30 12° S 21:10:40 89° SE 21:16:24 10° NNE
Cosmos 2184 Rocket 4.2 21:06:30 10° NNW 21:12:41 69° W 21:17:33 17° S
Cosmos 1743 3.3 21:09:15 10° N 21:12:57 43° ENE 21:14:28 28° SE
USA 307 3.6 21:10:03 10° WNW 21:14:02 38° SW 21:15:38 27° S
H-2A R/B 3.4 21:11:49 10° NNE 21:16:01 68° ESE 21:18:18 26° S
Cosmos 2074 Rocket 4.4 21:10:58 10° NNW 21:17:11 63° W 21:22:14 16° S
NOSS 3-4 (A) 4.1 21:12:19 10° NW 21:19:07 61° SW 21:24:06 23° SSE
NOSS 3-4 (C) 4.1 21:12:25 10° NW 21:19:13 62° SW 21:24:12 23° SSE
Cosmos 990 Rocket 4.3 21:20:01 25° S 21:22:49 49° ESE 21:27:54 10° NNE
Cosmos 1975 4.5 21:20:01 10° NNE 21:23:13 23° ENE 21:24:44 18° E
SJ 16-02 1.6 21:19:35 10° SSW 21:24:01 71° WNW 21:28:29 10° NNE
Nadezhda 1 Rocket 4.0 21:19:51 18° S 21:24:41 81° E 21:30:56 10° NNE
Cosmos 2297 4.3 21:22:46 26° SSE 21:25:12 37° ESE 21:30:23 10° NE
Cosmos 1733 Rocket 3.6 21:21:54 10° N 21:26:04 43° ENE 21:27:49 28° SE
USA 308 3.9 21:23:44 10° WNW 21:27:34 32° SW 21:28:43 28° S
ATLAS 2AS CENTAUR R/B 2.8 21:25:19 10° NW 21:32:47 77° SW 21:37:04 26° SSE
Terra 2.4 21:33:01 22° SSW 21:35:51 50° W 21:40:30 10° NNW
Cosmos 1544 3.0 21:32:15 10° NNW 21:35:52 80° W 21:37:03 40° S
USA 215 3.7 21:29:38 10° E 21:36:05 63° NNE 21:42:31 10° WNW
ERBS 2.5 21:38:45 10° WNW 21:42:03 64° NNE 21:43:15 35° E
SPOT 5 4.2 21:38:33 16° SSW 21:42:08 36° W 21:47:01 10° NNW
Cosmos 2082 Rocket 3.0 21:37:32 10° NW 21:42:47 42° WSW 21:45:50 23° SSW
Cosmos 2112 Rocket 4.1 21:40:14 10° NNW 21:45:35 71° WSW 21:48:11 31° S
Cosmos 2181 Rocket 4.3 21:44:37 28° SSE 21:47:34 49° E 21:53:26 10° NNE
Cosmos 2228 Rocket 3.7 21:45:34 18° SSW 21:48:40 52° WNW 21:53:04 10° N
Cosmos 44 3.6 21:44:11 10° NW 21:49:37 70° SW 21:51:59 33° SSE
Cosmos 2366 rocket 4.2 21:46:36 10° N 21:52:44 62° ENE 21:55:56 29° SSE
Spot 4 4.0 21:55:19 34° SE 21:57:23 67° ENE 22:02:14 10° N
Cosmos 2084 Rocket 3.4 21:53:34 10° NW 21:57:49 76° SW 21:59:14 42° SSE
Cosmos 2341 Rocket 4.1 21:54:13 10° NNW 22:00:38 82° W 22:04:08 29° S
BREEZE-M DEB (TANK) 2.8 21:55:58 10° W 22:02:06 76° N 22:03:26 27° E
Meteor 1-27 Rocket 4.3 21:58:45 16° SSW 22:03:22 60° WNW 22:09:15 10° N
Cosmos 1515 3.5 22:04:29 52° S 22:05:20 81° E 22:09:08 10° NNE
Cosmos 489 Rocket 4.4 22:03:54 10° NNW 22:10:11 90° WSW 22:13:17 32° SSE
Cosmos 2278 Rocket 3.5 22:05:09 10° WSW 22:10:26 39° NW 22:15:45 10° NNE
SL-24 R/B - RUBIN 2 4.4 22:06:13 10° NW 22:11:31 48° WSW 22:13:07 35° S
Cosmos 1937 Rocket 3.4 22:09:32 34° S 22:11:46 73° ESE 22:16:57 10° NNE
Cosmos 1862 Rocket 3.5 22:10:39 45° SSE 22:11:52 70° E 22:16:11 10° NNE
Cosmos 1680 Rocket 4.4 22:07:39 10° NW 22:12:34 39° WSW 22:14:52 26° SSW
Cosmos 2218 Rocket 4.0 22:08:50 10° N 22:15:09 88° ENE 22:18:16 33° S
Cosmos 1943 Rocket 2.2 22:13:55 33° S 22:16:25 65° ESE 22:21:58 10° NE
Cosmos 2369 Rocket 2.8 22:17:10 33° SE 22:18:39 39° ESE 22:23:52 10° NE
Gbstr 26 Del rocket 4.1 22:13:12 10° WNW 22:20:30 64° SSW 22:23:48 29° SE
Meteor 1-19 Rocket 4.1 22:19:24 36° S 22:21:39 77° E 22:27:04 10° NNE
Cosmos 1238 Rocket 4.0 22:16:24 10° NNW 22:22:39 67° W 22:25:13 33° SSW
Cosmos 1048 Rocket 4.5 22:17:51 10° NNW 22:23:07 56° ENE 22:25:39 29° SE
Gblst 52 Del rocket 4.4 22:18:49 10° WNW 22:25:47 69° SSW 22:29:37 24° SE
Meteor 2-9 Rocket 4.3 22:20:20 10° NNW 22:26:09 74° W 22:28:36 35° S
COBE Rocket 4.3 22:24:30 34° SE 22:26:33 59° ENE 22:31:38 10° N
Cosmos 858 Rocket 4.4 22:24:21 32° SSW 22:26:49 90° ESE 22:32:06 10° NNE
Cosmos 1340 Rocket 4.5 22:26:19 10° NW 22:29:42 25° W 22:31:03 21° WSW
Okean 1 3.5 22:29:36 43° SW 22:30:44 65° WNW 22:34:43 10° N
Okean 1-7 3.7 22:31:00 36° ESE 22:31:43 39° E 22:35:44 10° NNE
Cosmos 1818 3.9 22:27:12 10° NW 22:32:31 51° WSW 22:34:12 37° S
Cosmos 1656 Rocket 4.4 22:35:34 31° SE 22:36:44 35° ESE 22:41:42 10° NE
DNEPR-1 R/B 3.9 22:34:46 27° SSW 22:37:54 79° SE 22:42:46 10° NE
SL-8 Rocket 4.4 22:32:15 10° NNW 22:38:27 57° W 22:41:32 30° SSW
ALOS 2 2.5 22:41:06 50° S 22:42:14 83° WSW 22:46:40 10° NNW
Cosmos 1356 Rocket 4.2 22:42:12 10° N 22:46:19 45° ENE 22:47:36 34° ESE
Meteor 2-4 Rocket 3.7 22:47:04 38° S 22:49:21 77° E 22:54:58 10° NNE
Cosmos 1898 Rocket 4.4 22:47:28 16° SW 22:51:27 46° WNW 22:56:37 10° NNE
SL-27 R/B 2.6 22:50:21 10° NNW 22:53:38 55° ENE 22:53:51 54° E
SL-08 R/B 4.5 22:49:29 10° NNW 22:55:43 82° W 22:58:29 36° S
BREEZE-M DEB (TANK) 4.3 22:42:04 10° WNW 22:56:42 54° SW 22:58:40 36° SSE
COSMOS 2455 4.5 22:51:42 10° NNW 22:57:05 33° NNE 23:02:28 10° E
Cosmos 1975 3.6 22:56:06 10° NNW 22:59:49 38° W 23:00:28 36° WSW
Sich 1 Rocket 4.3 22:58:04 10° N 23:02:31 47° ENE 23:04:02 34° ESE
RESURS DK-1 2.3 22:58:37 10° NW 23:02:48 80° WSW 23:03:31 60° SSE
SJ 16-02 4.2 23:01:10 10° WNW 23:03:28 14° NW 23:05:46 10° NNW
Cosmos 2150 Rocket 4.3 23:04:29 41° SSE 23:06:01 55° ESE 23:11:12 10° NNE
Cosmos 2297 Rocket 4.3 23:01:34 10° NNW 23:06:06 24° NE 23:10:36 10° E
Cosmos 1833 4.2 23:01:16 10° NNW 23:07:02 81° WSW 23:09:23 38° SSE
SeaSat 1 3.3 23:03:10 10° NE 23:07:40 34° ESE 23:08:32 32° SE
Cosmos 1461 3.1 23:07:22 39° SW 23:09:07 86° NW 23:13:45 10° NE
Cosmos 372 Rocket 4.1 23:07:02 33° SW 23:09:16 70° WNW 23:14:23 10° NNE
Cosmos 2242 Rocket 3.5 23:09:01 50° SSW 23:10:08 80° W 23:14:39 10° N
Meteor 1-12 Rocket 4.3 23:04:23 10° NNW 23:10:20 86° ENE 23:12:43 38° SSE
Cosmos 2239 Rocket 4.5 23:04:21 10° N 23:10:42 84° E 23:13:35 35° SSE
ISS -2.2 23:18:16 26° E 23:18:16 26° E 23:19:55 10° E
Cosmos 494 Rocket 3.9 23:13:14 10° NNW 23:18:27 77° WSW 23:20:07 44° S
Cosmos 1908 Rocket 4.4 23:14:30 10° NNW 23:18:42 40° W 23:19:43 34° SW
USA 215 3.2 23:13:56 18° SE 23:19:04 74° SSW 23:25:38 10° WNW
Cosmos 1300 Rocket 3.8 23:16:02 10° N 23:20:26 60° ENE 23:21:41 42° SE
MTI 4.3 23:19:05 10° N 23:21:54 48° WNW 23:21:54 48° WNW
Okean 2 Rocket 3.6 23:18:13 10° N 23:22:31 51° ENE 23:23:56 36° SE
ATLAS 2AS CENTAUR R/B 4.1 23:17:33 10° WNW 23:22:33 20° WSW 23:24:29 18° SW
Nimbus 7 Rocket 4.4 23:18:05 10° NNE 23:23:59 86° WNW 23:26:37 36° SSW
Cosmos 1867 3.5 23:25:56 41° SSW 23:27:51 71° SE 23:33:19 10° NE
Cosmos 1125 Rocket 3.5 23:26:49 43° S 23:28:25 66° ESE 23:33:36 10° NNE
Cosmos 44 Rocket 3.4 23:23:34 10° NW 23:28:51 87° NE 23:31:23 31° SE
SAR-Lupe-2 4.4 23:28:53 10° N 23:32:17 42° WNW 23:32:57 37° W
Cosmos 1378 3.0 23:34:53 67° SW 23:35:17 77° W 23:39:01 10° N
ATLAS CENTAUR R/B 1.2 23:38:30 56° SE 23:38:30 56° SE 23:42:13 10° NE
Cosmos 1821 Rocket 4.4 23:32:27 10° NNW 23:38:42 55° W 23:41:25 33° SSW
Cosmos 2344 4.3 23:29:58 10° NW 23:39:01 75° SW 23:51:07 11° SSE
Cosmos 1934 Rocket 3.9 23:33:14 10° N 23:39:26 88° W 23:42:10 36° S
Cosmos 1726 4.2 23:38:40 10° NNE 23:41:38 22° ENE 23:43:27 16° ESE
USA 281 3.7 23:37:00 12° SE 23:43:02 58° NE 23:49:29 10° NNW
USA 81 4.2 23:43:00 10° N 23:48:19 69° E 23:50:37 34° SSE
Okean 3 3.7 23:50:46 45° SW 23:51:48 61° WNW 23:56:01 10° N
Meteor 1-15 Rocket 4.2 23:47:49 10° NNW 23:53:29 72° W 23:55:50 37° S
Lacrosse 5 3.0 23:54:51 27° SE 23:55:17 27° SE 23:59:33 10° ENE
